LA3SP-12 Weather Reports


Display with metric or nautical units.
time (UTC)temp
F
wind
direction
speed
MPH
gust
MPH
rain 1hr
in
rain 24hr
in
rain mn
in
humidity
%
barometer
mb
20260503004712 34 0 0.0 0.0 0.00 0.00 0.00 80 1009.1
20260503003815 35 50 0.0 3.0 0.00 0.00 0.00 80 1009.1
20260503002704 35 67 1.0 1.0 0.00 0.00 0.00 80 1008.9
20260503002014 35 0 0.0 0.0 0.00 0.00 0.00 80 1008.9
20260503000903 36 0 0.0 0.0 0.00 0.00 0.00 79 1008.9
20260503000214 36 0 0.0 0.0 0.00 0.00 0.00 79 1008.9
20260502235616 36 0 0.0 0.0 0.00 0.00 0.00 79 1009.0
20260502234713 36 0 0.0 0.0 0.00 0.00 0.00 79 1009.1
20260502233603 37 0 0.0 0.0 0.00 0.00 0.00 78 1009.2
20260502232913 37 0 0.0 0.0 0.00 0.00 0.00 78 1009.2
20260502231803 38 0 0.0 0.0 0.00 0.00 0.00 78 1009.3
20260502231112 38 0 0.0 0.0 0.00 0.00 0.00 77 1009.3
20260502230003 38 0 0.0 0.0 0.00 0.00 0.00 77 1009.4
20260502225616 38 0 0.0 0.0 0.00 0.00 0.00 77 1009.3
20260502224714 38 0 0.0 0.0 0.00 0.00 0.00 76 1009.5
20260502223603 39 0 0.0 0.0 0.00 0.00 0.00 76 1009.4
20260502222913 39 0 0.0 0.0 0.00 0.00 0.00 76 1009.4
20260502222016 39 0 0.0 0.0 0.00 0.00 0.00 75 1009.4
20260502221113 39 0 0.0 0.0 0.00 0.00 0.00 75 1009.4
20260502220215 40 0 0.0 0.0 0.00 0.00 0.00 74 1009.3
20260502215617 40 0 0.0 0.0 0.00 0.00 0.00 74 1009.4
20260502214503 40 0 0.0 0.0 0.00 0.00 0.00 74 1009.2
20260502212703 41 0 0.0 0.0 0.00 0.00 0.00 73 1009.3
20260502211803 41 290 0.0 2.0 0.00 0.00 0.00 74 1009.3
20260502210903 42 280 2.0 2.0 0.00 0.00 0.00 74 1009.3
20260502210216 41 271 2.0 3.0 0.00 0.00 0.00 74 1009.4
20260502205403 42 289 2.0 2.0 0.00 0.00 0.00 74 1009.2
20260502204503 42 292 2.0 2.0 0.00 0.00 0.00 73 1009.3
20260502203603 42 278 0.0 2.0 0.00 0.00 0.00 73 1009.2
20260502202704 43 270 0.0 4.0 0.00 0.00 0.00 72 1009.2
20260502201803 43 289 0.0 4.0 0.00 0.00 0.00 71 1009.3
20260502200903 43 300 0.0 8.0 0.00 0.00 0.00 71 1009.3
20260502200003 43 315 8.0 8.0 0.00 0.00 0.00 72 1009.4
20260502195403 43 336 2.0 4.0 0.00 0.00 0.00 71 1009.4
20260502194504 43 352 4.0 5.0 0.00 0.00 0.00 71 1009.5
20260502193813 43 19 4.0 4.0 0.00 0.00 0.00 71 1009.4
20260502192703 43 333 2.0 3.0 0.00 0.00 0.00 70 1009.4
20260502192018 43 310 2.0 3.0 0.00 0.00 0.00 71 1009.5
20260502191115 44 309 1.0 3.0 0.00 0.00 0.00 70 1009.3
20260502190217 44 349 2.0 4.0 0.00 0.00 0.00 69 1009.4
20260502185403 44 347 0.0 2.0 0.00 0.00 0.00 69 1009.3
20260502184503 44 299 2.0 4.0 0.00 0.00 0.00 69 1009.2
20260502183603 45 308 4.0 4.0 0.00 0.00 0.00 69 1009.3
20260502182013 45 284 0.0 5.0 0.00 0.00 0.00 68 1009.3
20260502181116 45 320 5.0 5.0 0.00 0.00 0.00 69 1009.1
20260502180213 45 320 3.0 4.0 0.00 0.00 0.00 69 1009.1
20260502170214 47 289 5.0 12.0 0.00 0.00 0.00 65 1009.3
20260502163815 49 282 5.0 10.0 0.00 0.00 0.00 64 1009.2
20260502162917 49 273 4.0 7.0 0.00 0.00 0.00 64 1009.2
20260502161803 49 282 4.0 9.0 0.00 0.00 0.00 64 1009.3
20260502160903 49 275 7.0 8.0 0.00 0.00 0.00 64 1009.4
20260502160214 49 276 5.0 9.0 0.00 0.00 0.00 65 1009.5
20260502151803 50 269 6.0 8.0 0.00 0.00 0.00 62 1009.5
20260502150903 50 271 8.0 8.0 0.00 0.00 0.00 61 1009.5
20260502150215 51 285 7.0 12.0 0.00 0.00 0.00 60 1009.7
20260502130216 53 290 0.0 9.0 0.00 0.00 0.00 58 1010.0
20260502123603 52 285 5.0 5.0 0.00 0.00 0.00 58 1010.3
20260502122915 52 272 5.0 8.0 0.00 0.00 0.00 59 1010.3
20260502121803 51 271 6.0 11.0 0.00 0.00 0.00 58 1010.4
20260502121114 51 291 4.0 4.0 0.00 0.00 0.00 58 1010.6
20260502115403 51 246 1.0 4.0 0.00 0.00 0.00 56 1010.7
20260502114716 51 248 3.0 4.0 0.00 0.00 0.00 55 1010.6
20260502113813 51 202 0.0 4.0 0.00 0.00 0.00 55 1010.6
20260502112915 52 226 3.0 3.0 0.00 0.00 0.00 55 1010.6
20260502111803 52 269 2.0 9.0 0.00 0.00 0.00 55 1010.7
20260502110903 52 254 4.0 9.0 0.00 0.00 0.00 55 1010.7
20260502110217 52 265 1.0 9.0 0.00 0.00 0.00 55 1010.8
20260502105614 51 275 0.0 9.0 0.00 0.00 0.00 57 1010.8
20260502104503 51 286 4.0 12.0 0.00 0.00 0.00 57 1010.9
20260502103603 51 286 9.0 9.0 0.00 0.00 0.00 57 1010.8
20260502102916 51 293 5.0 11.0 0.00 0.00 0.00 59 1011.1
20260502101803 50 302 2.0 9.0 0.00 0.00 0.00 61 1010.9
20260502101116 49 278 3.0 9.0 0.00 0.00 0.00 64 1011.2
20260502090903 50 281 2.0 11.0 0.00 0.00 0.00 58 1011.2
20260502071118 44 294 3.0 3.0 0.00 0.00 0.00 60 1011.8
20260502070215 44 247 0.0 1.0 0.00 0.00 0.00 61 1011.9
20260502065616 44 247 0.0 1.0 0.00 0.00 0.00 61 1012.0
20260502064714 43 112 0.0 1.0 0.00 0.00 0.00 63 1012.0
20260502063816 43 0 0.0 0.0 0.00 0.00 0.00 64 1012.0
20260502062705 42 202 0.0 1.0 0.00 0.00 0.00 65 1011.8
20260502061803 42 202 1.0 1.0 0.00 0.00 0.00 66 1012.0
20260502061113 42 0 0.0 0.0 0.00 0.00 0.00 67 1012.1
20260502060215 41 0 0.0 0.0 0.00 0.00 0.00 70 1011.9
20260502055617 40 292 0.0 1.0 0.00 0.00 0.00 71 1012.0
20260502054714 40 0 0.0 0.0 0.00 0.00 0.00 72 1012.1
20260502053603 39 231 0.0 1.0 0.00 0.00 0.00 74 1012.2
20260502052914 38 315 0.0 1.0 0.00 0.00 0.00 75 1012.2
20260502051803 37 0 0.0 0.0 0.00 0.00 0.00 76 1012.3
20260502051114 37 0 0.0 0.0 0.00 0.00 0.00 76 1012.3
20260502050003 36 202 0.0 2.0 0.00 0.00 0.00 77 1012.4
20260502045403 36 202 2.0 2.0 0.00 0.00 0.00 77 1012.5
20260502044504 35 0 0.0 0.0 0.00 0.00 0.00 77 1012.6
20260502043817 34 0 0.0 0.0 0.00 0.00 0.00 77 1012.7
20260502042915 33 0 0.0 0.0 0.00 0.00 0.00 77 1012.7
20260502042017 32 247 0.0 2.0 0.00 0.00 0.00 76 1012.7
20260502040903 32 0 0.0 0.0 0.00 0.00 0.00 76 1012.7
20260502040217 32 0 0.0 0.0 0.00 0.00 0.00 76 1012.7
20260502035613 32 45 0.0 1.0 0.00 0.00 0.00 75 1012.7
20260502034716 32 14 1.0 1.0 0.00 0.00 0.00 75 1012.7
20260502033813 32 0 0.0 0.0 0.00 0.00 0.00 74 1012.7
20260502032915 32 0 0.0 0.0 0.00 0.00 0.00 75 1012.7
20260502031803 32 11 0.0 2.0 0.00 0.00 0.00 74 1012.9
20260502031115 33 4 1.0 2.0 0.00 0.00 0.00 74 1012.9
20260502030005 33 277 2.0 2.0 0.00 0.00 0.00 74 1013.1
20260502025403 33 0 0.0 0.0 0.00 0.00 0.00 73 1013.1
20260502024503 33 292 0.0 2.0 0.00 0.00 0.00 73 1013.1
20260502023603 33 0 0.0 0.0 0.00 0.00 0.00 72 1013.2
20260502022916 33 265 0.0 2.0 0.00 0.00 0.00 72 1013.3
20260502021803 33 48 1.0 2.0 0.00 0.00 0.00 70 1013.4
20260502021116 34 45 2.0 2.0 0.00 0.00 0.00 70 1013.5
20260502020003 34 0 0.0 0.0 0.00 0.00 0.00 69 1013.5
20260502015615 35 0 0.0 0.0 0.00 0.00 0.00 69 1013.6
20260502014717 35 0 0.0 0.0 0.00 0.00 0.00 67 1013.5
20260502013603 36 0 0.0 0.0 0.00 0.00 0.00 67 1013.8
20260502012917 36 135 0.0 1.0 0.00 0.00 0.00 66 1013.9
20260502012014 36 67 0.0 1.0 0.00 0.00 0.00 66 1014.1
20260502010903 36 0 0.0 0.0 0.00 0.00 0.00 66 1014.3
20260502010003 37 135 0.0 2.0 0.00 0.00 0.00 65 1014.4
20260502005615 37 135 2.0 2.0 0.00 0.00 0.00 64 1014.3